Benton Harbor, MI

6:28 AM EDT on April 28, 2017 (GMT -0400)
Southwest Michigan Regional

Weather History for KBEH - May, 2014

Change the Weather History Date:

Thursday, May 8, 2014

  Actual Average Record
Temperature  
Mean Temperature 71 °F -  
Max Temperature 87 °F 67 °F 87 °F (2014)
Min Temperature 55 °F 44 °F 25 °F (1989)
Cooling Degree Days 6    
Growing Degree Days 21 (Base 50)    
Moisture  
Dew Point 57 °F    
Average Humidity 61    
Maximum Humidity 84    
Minimum Humidity 36    
Precipitation  
Precipitation 0.00 in - - ()
Sea Level Pressure  
Sea Level Pressure 29.85 in    
Wind  
Wind Speed 9 mph (South)    
Max Wind Speed 14 mph    
Max Gust Speed 24 mph    
Visibility 10 miles    
Events      
Averages and records for this station are not official NWS values.
T = Trace of Precipitation, MM = Missing Value Source: NWS Daily Summary

Daily Weather History Graph

Daily Weather History Graph

Search for Another Location

Airport or City:

Trip Planner

Search our weather history database for the weather conditions in past years. The results will help you decide how hot, cold, wet, or windy it might be!

Date:

Astronomy

May. 08, 2014 Rise Set
Actual Time 6:32 AM EDT 8:52 PM EDT
Civil Twilight 6:01 AM EDT 9:23 PM EDT
Nautical Twilight 5:22 AM EDT 10:02 PM EDT
Astronomical Twilight 4:39 AM EDT 10:45 PM EDT
Moon 2:46 PM EDT (5/8) 3:10 AM EDT (5/8)
Length of Visible Light 15h 22m
Length of Day
14h 19m
Waxing Gibbous, 64% of the Moon is Illuminated
May 8
Waxing Gibbous
May 14
Full
May 21
Last Quarter
May 28
New
Jun 5
First Quarter

Hourly Weather History & Observations

Time (EDT) Temp. Heat Index Dew Point Humidity Pressure Visibility Wind Dir Wind Speed Gust Speed Precip Events Conditions
12:53 AM 60.1 °F - 52.0 °F 75% 29.86 in 10.0 mi ESE 9.2 mph - N/A   Clear
1:53 AM 59.0 °F - 51.1 °F 75% 29.86 in 10.0 mi ESE 10.4 mph - N/A   Clear
3:53 AM 55.9 °F - 50.0 °F 80% 29.87 in 10.0 mi ESE 9.2 mph - N/A   Clear
4:53 AM 55.0 °F - 50.0 °F 83% 29.86 in 10.0 mi ESE 5.8 mph - N/A   Clear
5:53 AM 55.9 °F - 51.1 °F 84% 29.85 in 10.0 mi SE 6.9 mph - N/A   Clear
6:53 AM 57.0 °F - 52.0 °F 83% 29.88 in 9.0 mi SSE 5.8 mph - N/A   Clear
7:53 AM 60.1 °F - 53.1 °F 78% 29.88 in 10.0 mi SE 6.9 mph - N/A   Clear
8:53 AM 64.0 °F - 55.9 °F 75% 29.89 in 10.0 mi SSE 6.9 mph - N/A   Partly Cloudy
9:53 AM 70.0 °F - 59.0 °F 68% 29.89 in 10.0 mi SSE 10.4 mph - N/A   Clear
11:53 AM 79.0 °F - 63.0 °F 58% 29.88 in 10.0 mi South 11.5 mph - N/A   Clear
12:53 PM 81.0 °F 82.5 °F 64.0 °F 56% 29.86 in 10.0 mi SSE 8.1 mph - N/A   Clear
2:18 PM 81.0 °F 82.2 °F 63.0 °F 54% 29.88 in 10.0 mi West 13.8 mph - N/A   Clear
2:53 PM 80.1 °F 81.5 °F 63.0 °F 56% 29.86 in 10.0 mi West 11.5 mph - N/A   Partly Cloudy
3:53 PM 82.9 °F 84.0 °F 63.0 °F 51% 29.84 in 10.0 mi West 10.4 mph - N/A   Clear
5:53 PM 86.0 °F 86.1 °F 61.0 °F 43% 29.80 in 10.0 mi South 9.2 mph 20.7 mph N/A   Partly Cloudy
6:53 PM 87.1 °F 86.5 °F 59.0 °F 39% 29.80 in 10.0 mi SSW 12.7 mph 24.2 mph N/A   Scattered Clouds
7:53 PM 84.9 °F 83.6 °F 55.0 °F 36% 29.79 in 10.0 mi South 12.7 mph 19.6 mph N/A   Clear
8:53 PM 82.0 °F 81.7 °F 57.0 °F 42% 29.81 in 10.0 mi SSW 11.5 mph - N/A   Clear
9:53 PM 80.1 °F 80.6 °F 57.9 °F 47% 29.83 in 10.0 mi South 10.4 mph 21.9 mph N/A   Clear
10:53 PM 78.1 °F - 57.9 °F 50% 29.83 in 10.0 mi South 10.4 mph 19.6 mph N/A   Clear
11:53 PM 77.0 °F - 59.0 °F 54% 29.82 in 10.0 mi South 13.8 mph 20.7 mph N/A   Clear